Temp
40 40 37 40 41 40 40 39 37 32 34 41 43 47 48 49 50 50 50 51 50 50 50 52 54 55 54 55 60 61 62 63 64 64 64 64 65 65
38 40 39 37 40 40 39 39 39 37 34 41 46 46 50 57 51 50 51 52 50 48 48 49 51 53 53 53 57 58 59 60 61 62 62 62 63 64
37 38 39 41 40 39 40 39 38 39 35 43 48 47 47 52 51 50 52 51 50 49 47 47 47 48 50 52 55 55 56 57 58 59 60 61 62 63
35 35 36 41 39 39 40 39 38 40 38 40 45 48 47 52 52 48 54 59 52 49 47 46 46 46 48 50 51 52 52 53 54 55 57 58 60 61
35 33 33 37 40 39 39 39 40 44 42 42 43 48 46 49 51 49 51 51 54 50 46 45 46 47 49 50 50 51 50 50 50 51 52 52 54 56
34 35 35 35 38 39 41 40 41 39 42 42 43 44 45 50 48 47 47 50 50 54 50 48 48 48 50 50 50 50 49 49 49 49 48 48 48 51
34 35 36 38 40 39 41 40 40 37 40 41 41 42 47 48 45 46 47 47 50 54 52 51 53 55 53 50 51 49 48 48 48 48 47 46 46 48
32 34 36 40 39 39 41 41 40 38 39 38 38 43 47 44 45 47 49 46 49 55 53 53 57 56 57 57 49 46 46 47 46 46 46 46 45 45
33 33 35 37 38 38 38 39 40 41 37 39 39 44 43 44 46 46 47 50 49 50 50 43 48 45 48 48 45 45 45 45 44 44 44 43 42 42
33 33 35 36 38 38 39 40 39 41 42 45 44 46 44 47 51 51 49 50 50 50 51 40 43 40 43 44 44 44 44 43 43 42 41 41 39 39
34 35 35 36 38 39 40 37 39 39 43 45 44 42 41 40 46 52 50 49 46 44 47 42 39 38 38 38 42 43 42 42 42 41 40 40 39 39
33 35 36 36 37 37 38 37 35 37 44 46 47 48 48 45 41 49 53 49 45 44 46 43 39 39 36 37 38 41 41 40 40 41 41 41 41 40
32 33 35 36 37 38 38 38 36 42 41 43 44 46 45 45 47 49 50 51 46 44 46 45 40 37 36 34 35 37 41 41 42 41 41 41 41 42
32 34 36 37 37 38 37 37 39 38 42 38 38 35 36 38 42 44 45 45 47 51 46 49 43 42 37 34 35 36 36 37 40 39 38 38 38 38
34 34 36 37 36 35 36 36 37 38 35 35 35 34 34 36 42 43 44 43 41 40 48 49 46 47 45 37 35 34 35 33 36 36 35 35 37 38
34 35 33 33 33 33 37 37 37 35 36 35 34 34 36 37 41 45 42 42 39 35 36 40 45 47 40 41 40 33 35 34 33 33 33 33 33 34
34 35 36 35 35 35 35 35 35 37 35 34 35 35 35 37 38 40 41 40 38 36 34 35 35 36 35 36 35 34 33 33 33 33 33 30 30 31
36 36 35 35 34 35 37 35 34 36 36 36 36 35 36 37 39 38 42 41 37 36 35 36 39 39 37 35 35 33 33 33 32 33 33 30 28 29
36 35 34 35 35 35 35 35 34 34 37 36 36 36 36 37 39 38 38 38 37 37 37 35 40 43 37 32 32 34 33 33 33 33 33 33 30 28
35 35 35 35 35 36 35 35 35 36 36 36 37 37 37 38 38 37 38 38 38 38 38 37 37 39 40 34 32 30 34 33 33 32 30 30 30 31
35 35 35 36 36 36 35 35 35 35 35 36 36 36 36 39 37 38 38 37 39 40 37 34 32 34 35 37 33 30 31 33 35 34 32 31 29 28
35 35 35 36 36 36 35 35 35 35 36 36 35 36 36 38 38 38 39 39 37 37 33 33 35 36 35 35 32 29 29 30 32 32 33 33 32 29
34 35 35 35 36 36 36 35 35 34 35 36 36 37 35 37 37 37 37 37 37 35 35 34 34 34 33 34 32 30 29 29 31 32 32 33 34 32
MSLP
1017.80 1018.23 1018.85 1019.39 1019.81 1020.15 1020.61 1021.23 1022.06 1022.81 1022.32 1021.19 1020.79 1020.29 1020.38 1020.49 1020.63 1021.03 1021.34 1021.62 1021.86 1022.11 1022.34 1022.57 1022.75 1022.95 1023.20 1023.07 1022.97 1023.98 1024.88 1025.61 1026.14 1026.75 1027.19 1027.76 1028.34 1028.82
1017.48 1017.78 1018.32 1018.84 1019.46 1019.93 1020.38 1021.00 1021.56 1022.27 1022.58 1021.60 1021.16 1020.34 1020.11 1020.14 1020.41 1020.84 1021.14 1021.28 1021.58 1021.80 1022.08 1022.31 1022.54 1022.80 1023.11 1022.94 1023.11 1024.08 1024.86 1025.69 1026.47 1026.71 1027.32 1027.96 1028.59 1029.04
1017.47 1017.50 1017.96 1018.41 1019.29 1019.77 1020.23 1020.86 1021.61 1021.92 1022.45 1021.79 1021.11 1020.19 1020.15 1020.26 1020.54 1020.74 1020.76 1020.95 1021.12 1021.32 1021.75 1022.06 1022.29 1022.46 1022.55 1022.83 1023.26 1024.07 1025.23 1025.95 1026.61 1026.83 1027.44 1028.14 1028.73 1029.13
1017.57 1017.67 1017.91 1018.24 1019.11 1019.80 1020.20 1020.75 1021.34 1021.63 1022.17 1022.12 1021.26 1020.40 1020.28 1020.22 1020.24 1020.69 1020.51 1020.47 1020.71 1020.96 1021.49 1021.91 1022.15 1022.29 1022.28 1022.67 1023.54 1023.87 1025.42 1026.04 1026.65 1027.15 1027.69 1028.36 1028.90 1029.33
1017.39 1017.76 1018.37 1018.27 1019.20 1019.84 1020.22 1020.67 1021.14 1021.50 1021.98 1022.09 1021.67 1020.74 1020.29 1020.32 1020.41 1020.49 1020.47 1020.40 1020.39 1020.78 1021.34 1021.69 1021.76 1021.71 1021.95 1022.58 1023.51 1023.99 1025.72 1026.36 1026.72 1027.44 1028.08 1028.71 1029.23 1029.60
1017.12 1017.64 1018.31 1018.66 1019.21 1019.73 1020.10 1020.47 1021.09 1021.67 1021.92 1021.93 1021.65 1021.05 1020.61 1020.31 1020.44 1020.60 1020.63 1020.43 1020.65 1020.63 1020.96 1021.16 1021.57 1021.92 1021.90 1022.90 1023.46 1023.93 1025.80 1026.71 1027.03 1027.77 1028.54 1029.03 1029.54 1030.03
1016.78 1017.45 1018.01 1018.39 1019.29 1019.65 1019.95 1020.43 1021.04 1021.63 1021.82 1021.83 1021.76 1021.15 1020.59 1020.51 1020.69 1020.65 1020.68 1020.67 1020.61 1020.55 1021.04 1021.39 1021.67 1021.88 1022.56 1023.22 1024.35 1024.81 1025.43 1026.61 1027.36 1028.37 1028.90 1029.46 1029.95 1030.39
1016.61 1017.09 1017.62 1018.27 1018.94 1019.72 1020.10 1020.23 1020.78 1021.35 1021.61 1021.82 1021.65 1021.29 1020.78 1020.69 1020.64 1020.70 1020.67 1020.75 1020.77 1020.54 1020.74 1021.55 1021.74 1022.29 1023.00 1023.84 1024.56 1024.95 1025.57 1026.84 1027.83 1028.66 1029.26 1029.70 1030.26 1030.69
1016.51 1017.05 1017.58 1018.06 1018.77 1019.52 1020.26 1020.35 1020.81 1021.01 1021.33 1021.64 1021.52 1021.24 1020.96 1020.80 1020.45 1020.54 1020.70 1020.58 1020.71 1020.86 1020.83 1022.67 1023.21 1023.62 1024.10 1024.67 1025.16 1025.78 1026.31 1027.11 1028.25 1029.03 1029.66 1030.27 1031.00 1031.43
1016.56 1016.92 1017.45 1018.01 1018.55 1019.24 1020.21 1020.65 1020.73 1020.90 1021.07 1021.16 1021.08 1020.83 1020.69 1020.48 1020.12 1019.86 1020.19 1020.84 1021.07 1021.64 1021.46 1023.80 1024.65 1025.27 1025.79 1026.06 1025.75 1026.33 1027.19 1027.67 1028.76 1029.58 1030.31 1030.96 1031.72 1032.35
1016.69 1017.22 1017.57 1018.01 1018.59 1019.30 1019.94 1020.35 1020.63 1020.83 1020.68 1020.65 1020.53 1020.51 1020.47 1020.21 1019.84 1019.66 1020.19 1020.57 1021.57 1022.40 1022.63 1024.06 1025.42 1026.21 1027.46 1027.72 1027.71 1027.46 1027.73 1028.33 1029.33 1030.09 1030.74 1031.48 1032.22 1032.92
1017.03 1017.45 1017.85 1018.09 1018.68 1019.26 1019.80 1020.18 1020.63 1020.86 1020.69 1020.50 1020.41 1020.22 1020.04 1020.06 1019.54 1019.54 1020.01 1020.38 1021.34 1022.56 1023.21 1024.31 1025.56 1026.18 1028.10 1029.29 1029.19 1029.22 1029.33 1029.70 1030.13 1030.74 1031.46 1031.94 1032.34 1033.40
1017.24 1017.44 1017.97 1018.39 1019.07 1019.58 1019.87 1020.14 1020.53 1020.68 1020.79 1020.84 1020.83 1020.67 1020.52 1020.02 1020.02 1019.85 1019.87 1020.38 1021.07 1022.23 1022.85 1023.17 1025.46 1026.20 1027.86 1030.15 1030.55 1030.56 1030.26 1030.90 1031.14 1031.88 1032.29 1032.73 1032.92 1033.20
1017.54 1017.68 1018.16 1018.82 1019.31 1019.61 1019.99 1020.31 1020.56 1020.83 1021.10 1021.25 1021.17 1021.37 1021.15 1020.88 1020.85 1020.83 1021.01 1021.11 1021.24 1021.09 1023.03 1022.97 1024.55 1025.26 1027.17 1029.78 1031.03 1031.55 1031.64 1031.88 1032.06 1032.67 1033.05 1033.60 1033.94 1034.40
1017.93 1018.39 1018.79 1019.21 1019.52 1019.87 1020.28 1020.62 1020.94 1021.26 1021.49 1021.64 1021.69 1021.76 1021.57 1021.43 1021.22 1021.09 1021.63 1021.92 1022.52 1023.13 1023.21 1023.55 1023.87 1025.52 1026.30 1028.42 1030.60 1031.99 1032.45 1033.39 1033.36 1033.39 1033.83 1034.46 1034.78 1035.26
1018.94 1019.18 1019.36 1019.65 1020.04 1020.39 1020.83 1021.04 1021.48 1021.56 1021.54 1021.91 1022.25 1021.81 1021.64 1021.81 1021.51 1021.70 1022.33 1022.88 1023.85 1025.05 1025.18 1024.86 1025.17 1025.44 1027.52 1028.74 1029.75 1031.79 1032.71 1033.43 1034.26 1034.41 1034.60 1035.33 1035.78 1036.05
1019.55 1019.83 1020.10 1020.46 1020.74 1021.22 1021.49 1021.65 1021.62 1021.59 1021.73 1021.97 1022.04 1022.15 1022.18 1022.06 1022.15 1022.24 1022.53 1023.04 1024.18 1025.71 1026.62 1027.05 1027.41 1027.52 1028.55 1029.52 1031.27 1032.25 1032.93 1033.66 1034.48 1034.67 1035.04 1036.13 1036.64 1036.59
1019.72 1020.12 1020.58 1021.02 1021.34 1021.59 1021.85 1021.92 1021.85 1021.93 1021.98 1022.08 1022.20 1022.21 1022.57 1022.68 1022.73 1022.92 1023.17 1023.70 1024.64 1025.79 1026.61 1027.39 1027.41 1028.35 1029.60 1031.35 1032.21 1032.75 1033.43 1033.95 1034.64 1034.87 1035.20 1036.10 1037.35 1037.79
1020.13 1020.73 1021.11 1021.40 1021.49 1021.69 1021.88 1021.95 1022.06 1022.00 1022.03 1022.28 1022.36 1022.53 1022.78 1023.03 1023.17 1023.65 1024.02 1024.43 1025.37 1026.08 1026.83 1027.15 1027.52 1028.08 1030.08 1032.15 1033.34 1033.44 1033.41 1034.10 1034.64 1035.17 1035.54 1036.06 1036.92 1037.83
1020.82 1021.07 1021.26 1021.32 1021.44 1021.69 1021.88 1022.06 1022.21 1022.23 1022.36 1022.40 1022.74 1022.79 1022.93 1023.32 1023.65 1024.10 1024.57 1024.88 1025.45 1026.60 1027.26 1027.63 1028.17 1028.67 1029.47 1031.09 1032.81 1034.17 1033.92 1034.17 1034.54 1035.23 1036.26 1036.83 1037.41 1037.93
1021.30 1021.33 1021.44 1021.67 1021.86 1021.96 1022.05 1022.19 1022.27 1022.46 1022.56 1022.59 1022.80 1023.12 1023.23 1023.37 1024.11 1024.58 1024.84 1025.34 1025.94 1026.82 1027.85 1028.73 1029.35 1029.29 1029.84 1030.61 1032.45 1034.33 1034.69 1034.61 1034.67 1034.97 1035.91 1036.50 1037.21 1037.79
1022.03 1021.96 1021.93 1021.96 1022.00 1022.13 1022.22 1022.52 1022.65 1022.57 1022.85 1023.04 1023.20 1023.32 1023.60 1023.83 1024.13 1024.66 1025.17 1025.75 1026.48 1027.16 1028.26 1029.20 1029.67 1029.73 1030.13 1030.91 1032.33 1033.65 1034.82 1035.42 1035.42 1035.44 1035.68 1035.83 1036.15 1036.55
1022.36 1022.29 1022.30 1022.39 1022.42 1022.34 1022.30 1022.57 1022.78 1022.78 1023.09 1023.09 1023.40 1023.74 1024.08 1024.42 1024.62 1025.17 1025.70 1026.34 1026.94 1027.81 1028.53 1029.40 1029.95 1030.34 1031.09 1031.85 1032.50 1033.63 1034.64 1035.26 1035.56 1035.80 1036.21 1036.21 1036.05 1035.65
Wind_Speed
9 8 4 4 4 4 4 4 5 1 3 3 2 4 3 4 6 6 6 10 12 11 11 10 10 10 8 11 23 21 21 20 20 17 15 15 13 12
3 9 6 4 5 4 4 4 3 4 1 1 3 4 4 4 8 7 7 10 12 12 11 10 10 10 11 9 21 19 16 16 15 16 14 14 13 11
3 5 8 7 5 4 4 3 4 3 2 4 5 4 2 3 4 3 5 6 6 13 11 10 9 9 11 12 22 20 15 16 14 15 15 14 12 12
4 4 5 6 7 5 4 5 4 3 3 4 7 2 2 1 4 4 3 4 4 8 12 12 10 12 13 17 20 19 15 15 14 14 14 13 12 11
8 6 2 6 7 5 4 5 3 2 2 1 5 2 1 0 1 2 3 1 3 7 9 10 10 13 19 21 21 22 13 13 16 15 14 13 12 13
8 9 11 7 4 10 8 6 4 3 2 2 4 3 1 4 2 2 2 2 2 3 4 5 12 15 24 23 23 23 18 12 16 14 14 13 13 14
9 10 11 14 14 6 7 6 5 4 2 3 3 2 1 0 2 1 2 2 2 2 2 4 7 10 10 15 16 20 20 16 16 14 14 14 15 14
8 9 11 21 16 9 7 8 7 6 4 2 2 2 1 2 2 2 2 2 3 3 5 7 6 9 9 9 13 18 19 18 17 15 14 16 15 15
8 8 8 7 14 10 7 6 9 9 5 2 1 1 2 2 3 2 4 4 1 4 10 6 5 8 6 7 17 17 18 20 17 17 15 17 16 16
7 8 10 11 11 11 10 9 6 5 4 2 4 4 4 6 7 5 5 5 7 5 6 5 5 7 8 8 14 20 19 22 20 19 20 21 20 20
7 7 7 10 18 18 12 7 6 4 3 5 8 7 8 11 9 7 7 8 5 2 3 6 1 6 6 9 9 13 20 21 22 22 22 24 24 24
5 8 13 9 17 12 8 6 6 4 3 3 4 5 6 2 8 1 7 5 7 4 1 5 2 3 5 5 7 7 9 18 20 21 20 20 20 11
6 6 7 17 11 11 7 6 6 5 2 3 4 2 2 3 3 3 5 7 5 3 2 6 3 3 6 4 4 6 6 7 10 11 17 13 13 14
6 8 9 19 12 12 7 8 8 4 3 1 2 1 2 3 3 4 8 8 7 8 6 3 5 5 6 4 4 3 7 7 6 8 9 15 21 18
6 11 14 12 12 9 10 9 5 2 1 1 1 1 1 2 3 8 11 14 14 11 7 6 9 10 5 7 6 2 4 6 5 7 7 6 5 5
10 6 6 7 7 6 5 5 2 1 2 2 1 2 3 2 3 7 8 9 10 8 13 11 9 8 8 9 10 6 3 5 2 5 6 7 6 5
5 4 5 4 5 3 2 2 0 2 2 1 1 3 2 2 3 3 6 5 8 6 7 9 13 16 14 7 8 5 6 5 4 4 5 6 6 5
5 8 6 4 3 4 6 2 2 3 2 3 3 2 3 3 6 3 7 9 11 8 10 7 11 11 6 11 14 7 4 5 3 5 4 4 3 3
6 6 4 4 3 4 3 1 1 1 3 3 3 3 4 4 7 6 6 8 8 9 7 3 7 11 8 4 2 13 4 3 4 5 3 2 4 3
3 4 4 3 3 3 3 2 2 2 2 3 4 3 3 6 7 6 7 9 10 8 7 4 4 4 8 8 6 2 9 5 2 3 3 4 7 10
4 4 3 4 3 3 3 3 3 3 3 3 3 4 3 6 6 6 7 8 11 9 9 4 2 9 9 6 6 2 3 10 3 3 5 4 3 3
3 3 3 3 3 3 3 3 4 3 4 4 4 4 4 4 6 7 7 9 6 6 6 6 4 3 4 4 7 6 3 2 9 13 10 3 4 5
3 3 3 3 3 2 2 3 4 3 4 4 5 5 4 6 5 6 7 7 9 9 9 6 3 4 3 5 8 6 7 4 2 4 3 8 7 4
Wind_Direction
192 177 159 174 166 156 136 132 140 118 299 282 184 226 218 188 183 168 168 191 195 197 200 209 222 223 234 275 155 154 157 164 164 158 151 148 145 144
188 174 165 148 153 149 138 131 112 129 222 322 323 244 180 168 169 163 191 197 202 199 202 208 211 206 220 252 144 152 157 147 158 150 136 134 139 145
96 147 147 135 142 138 133 130 127 126 138 305 291 232 121 165 168 185 200 200 209 205 198 200 197 203 214 187 145 146 144 144 148 133 133 138 146 147
161 88 115 124 133 142 137 145 132 131 122 302 312 336 116 208 176 194 227 222 208 194 189 206 202 205 176 143 137 132 134 132 127 130 133 131 135 135
174 157 198 104 156 153 152 146 126 137 155 250 289 291 140 219 195 273 246 122 100 156 191 207 188 174 145 129 131 125 129 137 132 137 131 129 126 118
186 171 188 172 178 175 162 153 157 158 168 264 284 278 208 267 147 197 315 60 96 122 157 174 166 167 141 141 145 137 145 142 133 129 135 128 121 117
177 184 183 166 165 189 145 150 168 166 172 251 285 279 299 78 174 242 209 140 132 122 114 134 152 150 139 140 142 141 135 135 125 125 123 123 121 120
168 171 176 184 166 190 150 153 172 171 184 195 245 261 241 215 222 212 164 115 165 145 121 122 147 139 143 147 138 134 129 127 124 124 127 121 116 116
168 171 160 163 166 173 197 184 211 183 167 161 253 276 294 240 206 221 200 167 82 86 103 62 46 72 40 108 128 124 124 119 119 112 106 105 102 98
146 147 162 171 177 157 182 192 170 172 145 201 241 271 272 288 243 193 157 108 87 56 96 83 31 67 51 46 101 118 119 114 113 110 107 100 94 88
133 138 142 152 167 166 171 152 159 154 182 248 273 310 304 289 226 124 134 152 116 58 54 113 37 80 52 38 39 89 113 115 115 114 111 107 101 94
127 158 142 152 150 163 150 148 137 169 189 258 312 312 297 212 68 99 141 143 118 90 34 104 108 135 70 15 31 50 81 90 102 108 112 114 112 103
146 135 148 158 157 136 139 138 160 167 237 315 304 297 352 36 39 50 80 148 100 90 158 103 134 96 74 114 29 20 78 88 96 87 84 86 99 117
128 121 125 141 110 100 88 134 134 73 1 315 114 19 4 27 15 85 78 69 47 116 141 107 118 134 130 97 115 27 46 43 87 96 94 83 77 77
105 99 103 100 87 74 68 65 57 79 170 105 107 318 253 18 165 88 87 89 70 40 59 66 108 121 110 116 124 116 96 24 35 89 78 71 93 103
103 87 87 96 91 90 58 56 62 171 158 123 129 326 8 3 92 119 107 99 90 57 43 51 82 109 98 103 123 117 108 128 65 77 90 76 66 54
89 103 107 107 95 68 82 154 86 101 91 75 92 96 67 84 68 87 104 89 102 117 93 71 76 75 66 85 100 101 116 102 114 122 92 93 45 55
91 108 104 103 117 137 154 126 49 137 114 103 112 98 100 106 103 58 101 117 117 120 113 120 116 100 69 50 48 107 72 112 114 102 98 96 83 49
80 101 108 129 124 122 126 120 109 33 116 102 113 104 96 90 113 108 105 114 109 117 121 124 133 132 119 99 0 36 99 117 121 97 61 71 133 152
74 89 91 84 86 103 110 117 110 103 87 100 102 99 96 114 114 112 123 126 120 117 108 61 67 130 136 155 141 76 46 117 106 98 106 79 73 94
51 53 71 95 103 110 111 92 107 114 110 106 82 103 95 118 108 112 112 116 124 126 114 90 50 99 104 108 87 98 46 32 93 132 138 113 112 139
56 76 58 76 93 110 114 116 122 114 109 111 105 104 89 111 119 119 124 122 106 104 98 107 114 92 68 81 121 121 108 67 62 78 67 71 158 177
33 54 58 91 108 112 103 105 109 100 99 106 115 112 107 111 94 96 101 110 117 116 123 117 84 51 58 108 121 125 127 123 111 96 41 18 20 64